SCP
0 0 0 0 0 0 0 0 0 0 0 0 0 0 0 0 0 0 0 0 0 0 0 0 0 0 0 0 0 0 0 0 0 0 0 0 0 0 0 0 0 0 0 0
0 0 0 0 0 0 0 0 0 0 0 0 0 0 0 0 0 0 0 0 0 0 0 0 0 0 0 0 -0 0 0 0 0 0 0 0 0 0 0 0 0 0 0 0
0 0 0 0 0 0 0 0 0 0 0 0 0 0 0 0 0 0 0 0 0 0 0 0 0 0 0 0 0 0 0 0 0 0 0 0 0 0 0 0 0 0 0 0
0 0 0 0 0 0 0 0 0 0 0 0 0 0 0 0 0 0 0 0 0 0 0 0 0 0 0 0 0 0 0 0 0 0 0 0 0 0 0 0 0 0 0 0
0 0 0 0 0 0 0 0 0 0 0 0 0 0 0 0 0 0 0 0 0 0 0 0 0 0 0 0 0 0 0 0 0 0 0 0 0 0 0 0 0 0 0 0
0 0 0 0 0 0 0 0 0 0 0 0 0 0 0 0 0 0 0 0 0 0 0 0 0 0 0 0 0 0 0 0 0 0 0 0 0 0 0 0 0 0 0 0
0 0 0 0 0 0 0 0 0 0 0 0 0 0 0 0 0 0 0 0 0 0 0 0 0 0 0 0 0 0 0 0 0 0 0 0 0 0 0 0 0 0 0 0
0 0 0 0 0 0 0 0 0 0 0 0 0 0 0 0 0 0 0 0 0 0 0 0 0 0 0 0 0 0 0 0 0 0 0 0 0 0 0 0 0 0 0 0
0 0 0 0 0 0 0 0 0 0 0 0 0 0 0 0 0 0 0 0 0 0 0 0 0 0 0 0 0 0 0 0 0 0 0 0 0 0 0 0 0 0 0 0
0 0 0 0 0 0 0 0 0 0 0 0 0 0 0 0 0 0 0 0 0 0 0 0 0 0 0 0 0 0 0 0 0 0 0 0 0 0 0 0 0 0 0 0
0 0 0 0 0 0 0 0 0 0 0 0 0 0 0 0 0 0 0 0 0 0 0 0 0 0 0 0 0 0 0 0 0 0 0 0 0 0 0 0 0 0 0 0
0 0 0 0 0 0 0 0 0 0 0 0 0 0 0 0 0 0 0 0 0 0 0 0 0 0 0 0 0 0 0 0 0 0 0 0 0 0 0 0 0 0 0 0
0 0 0 0 0 0 0 0 0 0 0 0 0 0 0 0 0 0 0 0 0 0 0 0 0 0 0 0 0 0 0 0 0 0 0 0 0 0 0 0 0 0 0 0
0 0 0 0 0 0 0 0 0 0 0 0 0 0 0 0 0 0 0 0 0 0 0 0 0 0 0 0 0 0 0 0 0 0 0 0 0 0 0 0 0 0 0 0
0 0 0 0 0 0 0 0 0 0 0 0 0 0 0 0 0 0 0 0 0 0 0 0 0 0 0 0 0 0 0 0 0 0 0 0 0 0 0 0 0 0 0 0
0 0 0 0 0 0 0 0 0 0 0 0 0 0 0 0 0 0 0 0 -0 -0 0 0 0 0 0 0 0 0 0 0 0 0 0 0 0 0 0 0 0 0 0 0
0 0 0 0 0 0 0 0 0 0 0 0 0 0 0 0 0 0 0 0 0 0 0 0 0 0 0 0 0 0 0 0 0 0 0 0 0 0 0 0 0 0 0 0
-0 0 0 0 0 0 0 0 0 0 0 0 0 0 0 0 0 0 0 0 0 0 0 0 0 0 0 0 0 0 0 0 0 0 0 0 0 0 0 0 0 0 0 0
0 0 0 0 0 0 0 0 0 0 0 0 0 0 0 0 0 0 0 0 0 0 0 0 0 0 0 0 0 0 0 0 0 0 0 0 0 0 0 0 0 0 0 0
0 0 0 0 0 0 0 0 0 0 0 0 0 0 0 0 0 0 0 0 0 0 0 0 0 0 0 0 0 0 0 0 0 0 0 0 0 0 0 0 0 0 0 0
0 0 0 0 0 0 0 0 0 0 0 0 0 0 0 0 0 0 0 0 0 0 0 0 0 0 0 0 0 0 0 0 0 0 0 0 0 0 0 0 0 0 0 0
0 0 0 0 0 0 0 0 0 0 0 0 0 0 0 0 0 0 0 0 0 0 0 0 0 0 0 0 0 0 0 0 0 0 0 0 0 0 0 0 0 0 0 0
0 0 0 0 0 0 0 0 0 0 0 0 0 0 0 0 0 0 0 0 0 0 0 0 0 0 0 0 0 0 0 0 0 0 0 0 0 0 0 0 0 0 0 0
0 0 0 0 0 0 0 0 0 0 0 0 0 0 0 0 0 0 0 0 0 0 0 0 0 0 0 0 0 0 0 0 0 0 0 0 0 0 0 0 0 0 0 0
0 0 0 0 0 0 0 0 0 0 0 0 0 0 0 0 0 0 0 0 0 0 0 0 0 0 0 0 0 0 0 0 0 0 0 0 0 0 0 0 0 0 0 0
0 0 0 0 0 0 0 0 0 0 0 0 0 0 0 0 -0 -0 -0 0 0 0 0 0 0 0 0 0 0 0 0 0 0 0 0 0 0 0 0 0 0 0 0 0
Wind_Speed
8 7 10 12 14 9 6 8 7 4 2 5 8 8 8 7 7 7 7 7 7 7 6 6 6 6 5 5 5 4 3 3 2 2 1 1 1 1 1 1 1 1 1 1
6 11 11 9 9 9 9 8 6 3 2 4 6 9 8 9 10 9 9 8 7 6 6 6 6 6 5 5 5 4 3 3 3 2 1 1 1 1 2 1 1 2 2 1
10 6 8 9 8 10 10 8 7 4 2 5 5 8 10 10 11 10 8 8 7 7 7 7 7 6 5 5 5 4 3 3 3 2 1 1 0 1 1 1 1 2 2 2
8 6 7 8 9 9 8 6 5 3 3 4 4 5 5 6 7 9 9 8 7 6 6 7 7 6 6 5 4 4 3 3 3 3 2 2 2 2 2 1 1 2 2 2
5 5 7 9 7 6 3 1 2 4 4 4 5 5 6 6 7 9 8 7 6 5 6 6 6 6 5 5 4 3 3 3 2 3 3 3 2 2 1 1 1 2 2 2
5 4 4 4 3 4 2 1 1 3 2 6 9 8 6 6 8 7 7 6 5 4 4 5 5 5 4 4 4 4 4 3 3 2 2 3 2 2 1 1 1 2 1 1
3 4 2 1 2 3 4 4 2 3 4 7 6 7 6 2 3 5 5 5 5 4 4 5 5 5 4 5 5 4 4 3 3 3 2 2 2 2 2 2 2 2 2 2
3 4 3 2 3 5 7 7 5 5 5 4 4 7 3 2 4 4 5 6 5 4 4 3 4 4 4 5 5 4 4 4 3 3 3 2 2 2 2 2 2 2 2 2
2 2 1 3 3 2 5 6 4 2 3 3 5 4 1 1 3 4 5 5 4 4 4 3 3 3 3 4 4 4 4 3 3 3 2 2 2 2 2 2 2 2 2 2
1 1 2 1 2 3 2 2 2 3 3 5 5 6 4 5 4 4 4 4 3 3 3 3 3 3 3 3 3 3 3 2 2 2 2 2 2 2 2 2 2 2 2 2
1 1 2 2 5 5 3 3 3 3 3 3 3 1 1 5 5 5 4 4 4 3 3 3 3 3 2 2 2 2 2 2 2 2 2 2 2 1 1 1 2 2 1 1
1 1 2 4 1 2 3 3 3 2 4 3 2 1 3 6 6 5 4 4 4 3 3 3 3 3 2 2 1 1 1 1 2 2 1 2 1 1 1 1 2 1 1 1
1 1 0 1 1 1 2 4 4 3 2 3 3 2 2 5 5 5 4 4 4 3 3 3 3 2 2 1 1 0 0 1 1 1 1 1 1 1 1 2 2 1 1 1
1 2 3 4 3 3 4 5 5 4 4 4 5 3 2 2 3 4 4 3 3 3 3 3 2 2 2 1 1 1 1 1 0 1 1 1 1 1 1 1 1 1 1 1
1 2 3 6 6 4 5 7 8 8 7 5 4 4 3 1 1 2 3 3 3 3 3 3 2 2 2 2 2 2 2 1 1 1 1 1 1 1 0 0 0 0 0 0
1 2 2 5 7 5 5 6 8 9 7 7 5 4 1 1 2 2 2 2 2 3 3 3 3 2 2 2 2 2 2 2 1 1 1 1 1 1 0 0 0 0 1 1
2 2 2 3 4 4 5 6 7 6 6 5 6 4 1 1 1 1 1 2 2 2 3 3 3 3 2 2 2 2 2 2 2 1 1 0 1 1 0 0 0 0 1 1
3 2 2 1 1 5 3 1 3 4 4 2 2 2 1 1 1 1 2 2 2 2 2 2 3 4 4 3 2 2 2 1 1 1 1 0 0 1 1 0 0 0 0 1
3 3 2 2 3 4 2 2 1 3 4 2 2 1 2 2 1 2 3 3 2 1 2 2 2 3 3 4 3 2 2 2 1 1 1 1 0 1 1 1 0 1 1 1
2 1 2 2 3 3 2 3 3 1 3 2 1 1 0 2 0 2 2 3 3 3 2 2 3 3 3 4 4 2 2 2 2 2 2 2 1 1 1 1 1 1 1 1
1 2 3 3 3 3 2 4 3 1 4 4 2 0 1 1 1 1 2 3 3 3 3 3 3 3 3 4 3 3 3 3 2 2 2 2 2 1 1 2 2 2 2 2
2 2 3 2 3 4 3 3 1 2 4 4 4 3 2 2 3 3 3 3 4 4 4 3 3 3 4 4 3 3 3 3 3 2 2 2 2 2 2 3 2 2 2 2
2 2 2 3 2 1 1 1 3 3 4 4 4 3 2 2 2 3 3 3 3 3 3 3 3 3 4 4 3 3 3 3 3 3 3 2 3 3 3 2 2 2 2 2
2 2 1 2 2 1 2 3 4 5 4 4 4 4 4 2 2 2 2 2 3 3 3 3 3 3 4 4 4 3 3 3 2 3 3 3 3 3 3 2 2 2 2 2
3 2 2 2 2 2 2 4 5 4 4 4 4 4 3 2 2 2 2 2 2 3 3 3 3 3 4 4 4 4 4 3 3 3 3 3 3 3 3 3 3 2 2 2
1 1 2 2 2 2 2 3 4 4 4 4 3 4 3 2 2 2 2 2 2 2 3 3 3 3 4 4 4 4 4 4 3 3 3 2 2 2 3 3 4 6 5 7
Wind_Direction
191 206 209 207 212 232 249 246 251 254 196 204 230 238 233 229 230 223 215 206 199 191 173 159 159 154 149 143 141 150 157 164 156 163 185 197 218 239 239 219 217 223 228 231
196 225 225 219 218 236 255 252 252 271 225 238 246 253 241 230 229 225 215 207 198 185 167 160 159 153 156 153 151 159 166 170 168 169 190 200 220 232 228 224 228 224 212 222
216 222 218 220 222 227 238 240 239 238 267 274 273 267 234 227 225 223 215 207 202 185 171 165 162 158 156 155 158 168 175 177 174 169 170 200 253 292 266 251 234 229 215 216
233 231 225 220 222 223 239 247 244 225 219 240 207 271 239 216 218 212 207 204 201 181 169 166 164 162 163 159 157 166 176 177 174 169 175 184 203 231 251 242 248 255 231 217
231 227 225 228 229 235 240 267 238 227 239 263 232 255 265 201 218 212 198 193 185 173 166 162 159 161 159 154 159 169 173 174 176 182 183 188 212 236 252 253 251 262 259 238
265 267 253 251 250 235 195 190 238 241 243 254 221 218 260 212 208 194 180 170 158 149 147 145 143 141 148 150 155 167 171 180 185 187 187 188 200 225 251 270 260 265 268 263
253 239 241 221 210 224 202 164 164 193 214 240 206 209 241 210 160 151 150 144 137 137 131 126 134 150 158 161 165 173 175 183 185 187 197 204 202 206 221 249 263 271 278 278
199 224 210 234 215 203 217 204 187 192 211 230 208 219 221 125 92 97 107 110 115 115 115 128 145 153 163 167 170 176 182 183 185 192 207 210 202 205 225 241 256 255 258 262
205 241 251 278 300 234 204 229 255 265 269 250 227 214 169 111 106 104 106 109 114 119 123 129 135 143 159 169 177 184 183 184 188 193 203 209 204 208 223 237 250 260 267 276
295 249 237 290 276 278 269 236 206 207 218 239 227 210 207 180 164 136 124 124 122 121 119 126 128 133 144 160 172 178 178 184 192 193 203 222 214 212 222 234 244 248 259 269
342 169 213 222 221 221 218 225 222 219 249 237 240 222 43 138 137 129 120 118 111 106 112 110 109 112 118 128 158 177 180 181 192 201 209 217 225 221 227 240 255 246 248 252
288 172 226 249 287 328 243 216 193 194 247 246 262 256 42 81 90 94 93 93 100 91 94 93 92 88 84 108 138 170 181 190 203 212 216 210 215 210 232 255 263 259 246 251
200 152 166 264 249 314 283 251 238 252 253 240 233 221 50 57 66 76 85 84 85 80 73 74 76 81 79 72 85 130 228 220 204 202 214 213 209 220 243 256 260 261 242 259
307 211 223 227 261 226 254 254 233 217 223 250 245 242 299 39 68 70 75 85 91 77 67 59 59 63 61 55 39 9 319 298 258 215 211 211 225 244 250 259 263 264 246 237
312 242 266 289 292 257 251 234 221 224 227 231 252 252 249 269 71 79 68 65 67 66 53 44 33 32 37 25 10 355 338 337 325 286 222 224 231 248 282 286 272 276 264 267
282 249 272 281 286 277 262 247 228 233 238 247 264 277 9 50 51 61 66 68 70 45 24 22 15 17 20 9 345 332 328 335 333 309 262 217 188 195 183 256 279 331 324 321
218 211 239 255 276 309 262 235 221 224 230 231 242 254 10 28 17 39 90 92 63 25 7 5 2 357 352 341 330 319 323 336 338 323 320 223 185 171 172 249 68 348 316 332
206 222 233 241 248 238 243 241 203 211 223 219 265 290 254 243 231 101 90 73 39 21 9 0 353 349 342 335 336 342 348 357 356 343 333 321 139 136 127 88 41 337 345 349
214 204 218 212 235 262 278 324 215 209 251 238 245 301 348 355 65 53 43 35 32 23 17 8 358 349 341 340 342 9 10 3 15 20 15 11 48 133 136 113 321 310 332 355
235 200 216 237 239 244 300 328 337 73 281 315 286 236 353 55 124 281 6 22 39 43 33 20 11 8 357 346 354 17 16 12 9 7 3 2 5 99 115 114 47 21 23 14
206 213 219 240 244 266 346 343 27 130 272 328 341 30 74 166 243 334 27 25 36 40 27 24 23 12 358 350 2 17 20 4 352 5 20 18 18 71 80 78 61 53 51 48
193 193 211 223 233 255 4 36 59 296 328 347 11 29 32 23 32 45 44 33 32 34 27 25 29 13 2 0 11 18 13 355 6 32 43 42 37 51 63 75 61 53 58 53
222 214 210 208 226 332 45 14 351 357 359 2 4 13 32 46 26 33 34 37 32 29 23 22 29 17 5 5 13 19 1 2 22 42 47 48 48 56 67 81 73 55 53 53
292 311 263 264 294 337 13 19 17 15 11 8 14 14 24 33 31 30 33 34 35 20 15 15 23 25 10 8 14 14 6 14 40 53 49 48 58 57 56 62 71 69 57 57
282 292 280 268 300 351 13 5 358 6 13 18 18 17 17 33 25 25 23 29 34 17 10 15 20 24 11 10 18 17 11 21 45 55 53 51 54 65 61 58 58 65 60 68
256 262 256 267 303 293 301 342 355 9 4 2 7 7 12 22 30 25 19 22 28 21 15 20 20 24 15 13 22 18 14 25 49 58 52 51 52 57 69 70 58 52 58 55